This is the latest recevied weather packets stored in our database for station/object KB1RMA-4. If no packets are shown the sender has not sent any weather packets the latest 10 day(s).
| Time | Temp. | Humidity | Pressure | Rain* | Wind** | Luminosity | Snow |
|---|---|---|---|---|---|---|---|
| 1788205710 | 23.89° C | 55% | 1018.8 hPa | 0 mm | - | 457 W/m² | - |
| 1788205405 | 25° C | 52% | 1018.7 hPa | 0 mm | - | 475 W/m² | - |
| 1788205104 | 25° C | 52% | 1018.8 hPa | 0 mm | - | 473 W/m² | - |
| 1788204800 | 24.44° C | 52% | 1018.8 hPa | 0 mm | - | 494 W/m² | - |
| 1788204495 | 23.89° C | 54% | 1019 hPa | 0 mm | - | 520 W/m² | - |
| 1788204195 | 23.89° C | 56% | 1019.1 hPa | 0 mm | - | 532 W/m² | - |
| 1788203891 | 23.89° C | 56% | 1019.3 hPa | 0 mm | - | 540 W/m² | - |
| 1788203587 | 23.33° C | 58% | 1019.1 hPa | 0 mm | - | 560 W/m² | - |
| 1788203282 | 23.89° C | 55% | 1019.3 hPa | 0 mm | - | 572 W/m² | - |
| 1788202982 | 23.89° C | 54% | 1019.3 hPa | 0 mm | - | 535 W/m² | - |
| 1788202682 | 23.89° C | 54% | 1019.6 hPa | 0 mm | - | 603 W/m² | - |
| 1788202378 | 23.89° C | 54% | 1019.6 hPa | 0 mm | - | 603 W/m² | - |
| 1788202076 | 23.89° C | 52% | 1019.8 hPa | 0 mm | - | 580 W/m² | - |
| 1788201772 | 24.44° C | 53% | 1019.6 hPa | 0 mm | - | 493 W/m² | - |
| 1788201468 | 24.44° C | 50% | 1019.8 hPa | 0 mm | - | 567 W/m² | - |
| 1788201167 | 24.44° C | 52% | 1019.8 hPa | 0 mm | - | 623 W/m² | - |
| 1788200866 | 23.89° C | 51% | 1019.8 hPa | 0 mm | - | 643 W/m² | - |
| 1788200561 | 24.44° C | 50% | 1019.4 hPa | 0 mm | - | 538 W/m² | - |
| 1788200256 | 23.89° C | 51% | 1020.1 hPa | 0 mm | - | 367 W/m² | - |
| 1788199952 | 23.89° C | 53% | 1019.7 hPa | 0 mm | - | 524 W/m² | - |
| 1788199651 | 23.89° C | 48% | 1019.8 hPa | 0 mm | - | 393 W/m² | - |
| 1788199346 | 23.89° C | 44% | 1019.8 hPa | 0 mm | - | 636 W/m² | - |
| 1788199045 | 23.89° C | 47% | 1019.7 hPa | 0 mm | - | 671 W/m² | - |
| 1788198743 | 22.78° C | 50% | 1019.8 hPa | 0 mm | - | 710 W/m² | - |
| 1788198442 | 22.78° C | 50% | 1019.8 hPa | 0 mm | - | 379 W/m² | - |
* Rain latest hour (hover to see other rain measurements)
** Current wind speed in m/s (hover to see current wind gust speed)